Location: Unspecified
(0.0000°N, 0.0000°E)
Time: 14:31:08
(UTC+00:00)

deb Briz - Pass Details

Date: 16 February 2026
Orbit: 1859 x 2171 km, 64.9° (Epoch: 5 March)

Event Time Altitude Azimuth Distance (km) Brightness Sun altitude
Rises 04:41:54 0° 201° (SSW) 5,482 ? -22.5°
Reaches altitude 10° 04:45:10 10° 201° (SSW) 4,517 ? -21.7°
Maximum altitude 04:57:05 89° 290° (WNW) 2,131 ? -18.8°
Drops below altitude 10° 05:09:28 10° 20° (NNE) 4,680 ? -15.8°
Sets 05:12:56 0° 21° (NNE) 5,686 ? -14.9°
